CAPE
1938 1759 1572 1667 1769 1514 1492 1559 1638 1613 1401 929 964 947 826 922 985 857 1172 1096 1155 1865 1678 1815 1530 1503 1322 828 1341 1306 838 814 621 1146 876 1051 874 750 660 471 592 585 598
2806 2385 1700 1723 1511 1487 1286 1435 1470 1245 993 1000 795 727 613 474 683 787 602 1152 967 1363 1919 2045 1924 1777 1635 1571 983 857 1532 1621 1454 1015 1330 1480 1370 1239 842 628 675 459 777
2253 2204 2251 2124 1636 1391 1353 1217 1217 953 845 601 565 420 459 482 314 674 677 732 1025 1127 1362 1639 2469 2518 2060 1743 1808 1769 1789 1636 1878 1660 1581 1585 1545 1646 1505 1465 1526 1257 1221
2267 2332 2700 2268 1386 1427 1184 1271 1166 982 794 535 471 467 556 413 576 599 543 612 506 679 977 1321 1526 2479 2003 1347 1692 1702 1996 1847 1918 2105 1904 1828 1830 1817 1810 1705 1643 1655 1699
2141 2460 2453 1960 1526 1402 1527 1246 972 992 498 372 338 399 436 413 487 321 651 792 796 861 632 687 1056 1319 1647 1573 1788 1792 1938 1814 1705 1939 2069 2182 1874 1857 1822 1870 1798 1727 1837
1874 1787 1837 1727 1550 1482 1213 1003 1092 859 740 684 504 413 403 337 287 384 620 509 226 993 1285 1440 1429 1479 1374 1513 1710 1962 2078 1831 1864 1909 1833 1922 2145 2174 2076 1941 1874 1834 2045
1785 1798 2063 1766 1514 1192 1062 1123 807 700 407 648 682 140 254 285 276 250 366 161 0 51 308 770 1244 1301 1337 1164 1380 1402 1395 1919 1951 2022 1883 1745 1962 1954 2016 2008 1846 1855 1834
1962 1931 1796 1432 1237 917 1104 702 748 433 478 693 477 299 11 250 290 239 121 2 0 0 7 175 233 446 633 778 747 678 786 923 1350 1720 1948 1790 1675 1775 1793 1805 1874 1807 1791
1927 1798 1517 1168 1164 684 130 585 462 664 443 566 644 372 25 11 129 207 238 0 0 0 0 1 41 108 19 31 73 126 186 362 654 918 1100 1593 1900 1728 1683 1658 1701 1816 1776
1800 1655 1405 738 791 273 595 481 372 638 641 228 349 532 419 422 10 0 0 0 0 0 0 0 0 0 0 0 0 0 0 0 2 27 208 725 1001 1253 1863 1890 1699 1701 1840
1770 1250 748 522 528 466 704 321 631 471 415 276 249 242 211 107 136 0 0 0 0 0 0 0 0 0 0 0 0 0 0 0 0 0 0 0 60 520 1114 1341 1991 1939 1878
1089 632 301 383 623 662 536 237 384 397 374 447 440 217 0 0 0 0 0 1 0 0 0 0 0 0 0 0 0 0 0 0 0 0 0 0 0 0 185 812 1203 1716 2306
807 262 306 357 471 647 306 248 350 368 281 288 596 115 86 45 66 47 26 3 0 0 0 0 0 0 0 0 0 0 0 0 0 0 0 0 0 0 0 25 295 989 1395
637 265 314 359 530 173 86 220 219 223 261 217 480 496 114 140 230 222 119 44 4 0 0 0 0 0 0 0 0 0 0 0 0 0 0 0 0 0 0 0 1 125 458
244 256 293 396 178 0 52 271 63 214 316 385 336 543 412 161 228 267 291 117 47 19 11 0 0 0 0 0 0 0 0 0 0 0 0 0 0 0 0 0 0 2 20
230 293 326 182 50 4 18 264 91 83 195 186 214 443 511 266 333 498 335 199 78 50 17 10 7 0 0 0 0 0 0 0 0 0 0 0 0 0 0 0 0 0 3
275 308 329 123 81 48 65 168 226 97 100 226 482 529 567 637 373 413 370 247 155 113 112 0 8 22 0 43 35 54 29 0 0 0 0 0 0 0 0 0 0 0 0
210 205 242 194 147 103 145 270 228 0 153 306 311 526 539 398 605 576 300 371 351 238 142 134 153 51 106 112 119 178 68 0 0 0 0 0 0 0 0 0 0 0 0
168 78 174 228 187 199 360 438 327 109 232 334 380 479 467 606 622 305 287 174 141 500 191 136 98 46 57 118 139 183 105 28 2 0 0 0 0 0 0 0 0 0 0
336 215 153 277 272 324 290 169 19 155 291 289 399 485 556 511 409 242 184 249 220 195 151 149 96 66 69 244 135 113 51 22 12 1 0 0 0 0 0 0 0 0 0
57 61 125 134 217 158 30 46 125 277 493 497 458 669 586 359 87 45 52 85 198 190 107 96 90 82 73 75 124 79 46 23 76 18 10 5 4 4 0 1 4 0 0
2 11 1 87 253 65 0 0 36 360 549 634 617 584 426 22 1 0 0 34 77 144 159 699 191 142 230 149 123 31 11 3 3 8 22 22 15 6 4 11 3 0 0
109 0 0 24 421 380 8 0 0 216 495 532 604 529 227 68 24 55 4 0 15 4 44 200 142 158 128 81 26 13 10 17 15 21 40 25 22 28 8 1 0 0 0
222 12 43 227 643 455 67 23 35 181 415 547 474 325 212 172 127 9 26 48 78 79 83 37 28 17 6 1 6 18 9 0 2 16 111 74 37 7 0 0 0 0 0
167 176 312 185 294 310 28 27 79 112 200 368 470 180 63 60 0 0 0 6 59 57 5 0 0 0 0 0 0 0 0 21 12 34 11 1 0 0 0 0 0 0 0
38 115 199 417 368 929 84 126 111 133 108 145 184 30 0 0 0 0 0 0 37 49 4 0 0 0 1 1 0 12 1 15 29 11 0 0 0 0 0 0 0 3 28
CIN
-13 -17 -18 -12 -7 -7 -2 -0 -0 -1 -5 -20 -20 -35 -44 -37 -26 -30 -16 -39 -51 -20 -10 -3 -1 -0 -1 -12 -0 -0 -0 -0 -0 -0 -0 -0 -0 -0 -0 -0 -0 -0 -0
-5 -10 -14 -10 -6 -9 -7 -3 -0 -1 -7 -11 -14 -20 -32 -48 -48 -34 -39 -14 -68 -38 -13 -4 -1 -1 -0 -0 -11 -8 -0 -0 -0 -0 -0 -0 -0 -0 -0 -0 -0 -1 -0
-21 -3 -10 -12 -7 -10 -10 -9 -1 -6 -2 -10 -15 -32 -27 -26 -55 -39 -36 -27 -9 -36 -33 -18 -1 -1 -0 -0 -1 -0 -0 -1 -0 -0 -0 -0 -0 -0 -0 -0 -0 -0 -0
-2 -2 -5 -2 -12 -6 -8 -1 -0 -0 -0 -7 -25 -43 -19 -56 -24 -22 -24 -30 -45 -26 -28 -29 -23 -4 -1 -3 -0 -0 -0 -2 -2 -0 -0 -0 -0 -0 -0 -0 -0 -0 -0
-14 -7 -2 -6 -12 -6 -2 -0 -0 -0 -18 -48 -70 -76 -62 -72 -46 -83 -16 -12 -15 -16 -21 -35 -47 -30 -8 -0 -0 -1 -0 -0 -1 -1 -0 -0 -0 -0 -0 -0 -0 -0 -0
-7 -17 -10 -13 -5 -0 -0 -0 -0 -0 -3 -4 -44 -81 -89 -97 -99 -57 -9 -16 -101 -6 -2 -7 -6 -1 -33 -18 -7 -3 -0 -0 -1 -1 -2 -0 -0 -0 -0 -0 -0 -0 -0
-11 -13 -7 -3 -2 -0 -0 -0 -0 -1 -45 -9 -14 -152 -118 -116 -109 -127 -90 -183 -1 -223 -52 -19 -1 -4 -0 -35 -21 -19 -5 -1 -1 -1 -3 -5 -2 -1 -1 -0 -0 -0 -0
-8 -5 -1 -0 -0 -0 -0 -0 -2 -45 -56 -21 -35 -80 -268 -109 -108 -117 -188 -86 -0 -0 -237 -96 -69 -41 -23 -8 -28 -46 -35 -28 -4 -0 -0 -2 -7 -5 -3 -2 -0 -0 -0
-2 -0 -1 -0 -0 -2 -94 -4 -35 -28 -78 -48 -30 -61 -91 -78 -145 -130 -116 -0 -0 -0 -0 -142 -172 -121 -53 -24 -46 -65 -66 -67 -28 -6 -1 -0 -1 -2 -4 -5 -4 -0 -0
-0 -1 -1 -12 -3 -40 -6 -17 -32 -17 -28 -113 -98 -60 -55 -36 -35 -0 -0 -0 -0 -0 -0 -0 -0 -0 -0 -0 -0 -0 -0 -0 -3 -81 -64 -11 -0 -0 -0 -1 -4 -4 -0
-0 -11 -43 -56 -42 -31 -10 -45 -4 -21 -37 -82 -115 -119 -106 -142 -98 -0 -0 -0 -0 -0 -0 -0 -0 -0 -0 -0 -0 -0 -0 -0 -0 -0 -0 -0 -114 -28 -0 -0 -0 -0 -0
-41 -79 -141 -99 -45 -19 -23 -49 -26 -29 -42 -39 -44 -93 -0 -0 -0 -0 -0 -0 -0 -0 -0 -0 -0 -0 -0 -0 -0 -0 -0 -0 -0 -0 -0 -0 -0 -0 -85 -2 -0 -0 -0
-85 -194 -169 -119 -65 -29 -52 -45 -17 -9 -38 -48 -17 -134 -172 -136 -84 -97 -116 -0 -0 -0 -0 -0 -0 -0 -0 -0 -0 -0 -0 -0 -0 -0 -0 -0 -0 -0 -0 -55 -44 -0 -0
-135 -212 -187 -144 -76 -124 -120 -57 -24 -19 -23 -44 -17 -31 -121 -108 -77 -74 -132 -35 -0 -0 -0 -0 -0 -0 -0 -0 -0 -0 -0 -0 -0 -0 -0 -0 -0 -0 -0 -0 -0 -71 -14
-235 -238 -211 -147 -179 -0 -171 -52 -89 -32 -13 -12 -20 -2 -16 -90 -49 -45 -58 -140 -0 -0 -0 -0 -0 -0 -0 -0 -0 -0 -0 -0 -0 -0 -0 -0 -0 -0 -0 -0 -0 -0 -90
-283 -253 -197 -199 -236 -101 -201 -59 -67 -62 -22 -34 -26 -0 -1 -23 -10 -9 -51 -115 -83 -0 -0 -0 -0 -0 -0 -0 -0 -0 -0 -0 -0 -0 -0 -0 -0 -0 -0 -0 -0 -0 -0
-288 -255 -230 -238 -208 -197 -165 -76 -31 -37 -19 -7 -0 -3 -2 -4 -21 -35 -37 -59 -184 -143 -0 -0 -0 -0 -0 -24 -8 -1 -6 -0 -0 -0 -0 -0 -0 -0 -0 -0 -0 -0 -0
-277 -289 -265 -223 -193 -184 -134 -53 -24 -0 -8 -1 -6 -4 -5 -2 -5 -4 -33 -18 -46 -134 -0 -0 -52 -0 -16 -3 -3 -2 -35 -0 -0 -0 -0 -0 -0 -0 -0 -0 -0 -0 -0
-268 -285 -261 -228 -188 -143 -76 -29 -34 -47 -9 -8 -10 -10 -11 -8 -7 -44 -26 -78 -132 -24 -8 -0 -0 -1 -39 -9 -1 -2 -12 -58 -0 -0 -0 -0 -0 -0 -0 -0 -0 -0 -0
-293 -214 -233 -173 -143 -91 -81 -86 -120 -41 -18 -21 -21 -19 -16 -14 -21 -24 -36 -40 -71 -60 -0 -0 -0 -0 -26 -1 -30 -43 -103 -0 -0 -0 -0 -0 -0 -0 -0 -0 -0 -0 -0
-94 -164 -159 -154 -136 -135 -151 -104 -52 -28 -16 -15 -17 -21 -18 -33 -63 -90 -31 -21 -27 -8 -0 -0 -0 -0 -29 -41 -30 -52 -70 -0 -0 -0 -0 -0 -0 -0 -0 -5 -4 -0 -0
-3 -116 -68 -152 -95 -119 -0 -0 -99 -27 -19 -17 -16 -14 -23 -137 -1 -0 -0 -129 -74 -14 -1 -0 -0 -11 -6 -0 -3 -0 -0 -0 -0 -0 -0 -0 -0 -0 -0 -0 -3 -0 -0
-1 -0 -0 -57 -74 -50 -107 -0 -0 -49 -23 -30 -22 -21 -37 -75 -14 -56 -16 -0 -17 -54 -47 -0 -0 -24 -36 -6 -0 -0 -0 -0 -0 -0 -0 -0 -0 -0 -0 -0 -0 -0 -0
-70 -34 -126 -98 -47 -40 -111 -77 -49 -103 -38 -29 -33 -54 -59 -73 -43 -30 -56 -38 -28 -10 -6 -10 -0 -0 -0 -0 -0 -0 -0 -0 -0 -0 -0 -0 -0 -0 -0 -0 -0 -0 -0
-28 -73 -14 -50 -53 -61 -59 -76 -99 -157 -59 -29 -26 -78 -87 -69 -0 -0 -0 -31 -23 -13 -7 -0 -0 -0 -0 -0 -0 -0 -0 -0 -0 -0 -0 -1 -0 -0 -0 -0 -0 -0 -0
-75 -27 -18 -30 -99 -78 -90 -158 -160 -141 -91 -53 -43 -113 -0 -0 -0 -0 -0 -0 -21 -19 -58 -0 -0 -0 -2 -0 -0 -0 -0 -0 -0 -0 -0 -0 -0 -0 -0 -0 -0 -0 -0
Wind_Speed
10 12 14 15 14 14 14 15 14 12 12 12 10 9 8 7 6 7 5 8 7 9 11 14 11 13 9 4 4 7 6 6 4 4 7 6 6 6 6 7 7 7 6
10 10 12 12 12 13 13 12 12 11 11 11 9 9 10 9 8 6 5 5 6 10 10 10 12 13 12 3 5 2 3 3 5 3 1 5 6 6 4 6 6 6 6
12 10 10 10 10 11 11 11 10 12 12 11 10 10 10 10 11 10 8 8 8 9 10 11 9 14 16 11 2 4 3 2 3 4 3 2 2 5 5 6 6 6 5
14 11 9 9 10 10 10 9 9 11 12 12 10 11 10 11 11 12 12 10 10 9 12 13 13 12 15 14 9 6 4 5 4 4 4 4 2 2 3 4 5 6 5
13 15 14 13 13 12 10 9 10 9 10 10 10 10 11 12 11 12 10 10 10 10 10 13 11 12 13 12 13 13 10 6 5 4 3 4 5 3 3 3 3 6 7
13 12 13 15 16 13 14 14 12 13 11 11 10 10 11 15 14 15 13 12 11 10 8 7 10 14 18 17 18 19 15 12 8 5 3 2 3 5 4 4 3 3 4
11 12 12 16 17 16 15 15 12 12 14 15 12 12 15 17 16 16 17 14 nan nan 12 12 10 11 15 21 26 28 21 12 14 11 7 6 5 5 5 4 4 3 2
13 15 17 19 19 18 16 14 13 12 13 15 15 16 nan 19 15 17 17 nan nan nan nan 16 13 13 14 18 23 30 33 30 27 23 14 10 9 7 7 6 6 5 3
17 19 22 21 20 16 15 14 13 14 12 15 15 16 nan nan 12 16 17 nan nan nan nan nan nan 19 nan nan nan 27 33 35 33 30 31 32 19 13 11 8 8 7 6
21 21 22 22 19 15 15 13 13 14 13 13 17 19 18 18 nan nan nan nan nan nan nan nan nan nan nan nan nan nan nan nan nan nan 33 35 34 32 22 14 12 9 7
21 21 22 22 19 16 17 15 14 13 14 14 17 19 19 20 21 nan nan nan nan nan nan nan nan nan nan nan nan nan nan nan nan nan nan nan nan 34 32 28 20 13 9
22 22 24 24 20 19 18 17 17 17 17 18 19 20 nan nan nan nan nan nan nan nan nan nan nan nan nan nan nan nan nan nan nan nan nan nan nan nan 36 34 31 26 16
22 23 24 23 20 19 18 19 21 21 23 21 24 24 nan nan nan nan nan nan nan nan nan nan nan nan nan nan nan nan nan nan nan nan nan nan nan nan nan nan 36 34 30
27 25 23 22 23 23 nan 22 23 25 26 24 24 26 26 26 27 26 27 nan nan nan nan nan nan nan nan nan nan nan nan nan nan nan nan nan nan nan nan nan nan 38 37
26 28 28 27 26 nan nan 26 nan 28 27 24 23 25 28 27 28 29 34 33 nan nan nan nan nan nan nan nan nan nan nan nan nan nan nan nan nan nan nan nan nan nan nan
26 26 26 26 nan nan nan 27 nan nan 27 24 25 28 27 30 28 32 30 31 nan nan nan nan nan nan nan nan nan nan nan nan nan nan nan nan nan nan nan nan nan nan nan
33 27 26 26 nan nan nan 28 26 nan 26 24 23 26 24 25 23 28 35 31 32 35 32 nan nan nan nan nan nan nan nan nan nan nan nan nan nan nan nan nan nan nan nan
27 31 32 31 31 30 32 30 29 nan 27 23 22 19 19 20 28 32 31 34 35 38 39 35 34 nan 38 38 34 31 nan nan nan nan nan nan nan nan nan nan nan nan nan
34 nan 30 33 35 34 31 33 34 31 32 25 24 22 27 33 33 36 34 32 35 38 43 45 nan nan nan 38 36 34 33 nan nan nan nan nan nan nan nan nan nan nan nan
51 30 28 34 36 34 30 34 nan 33 35 30 26 26 29 31 38 37 35 36 36 40 45 44 nan nan nan 39 41 38 nan nan nan nan nan nan nan nan nan nan nan nan nan
nan nan 19 27 35 29 nan nan 34 35 33 28 26 30 35 37 nan nan nan nan 37 41 44 nan nan nan nan nan 39 nan nan nan nan nan nan nan nan nan nan nan nan nan nan
nan nan nan nan 25 nan nan nan nan 36 31 29 21 34 37 nan nan nan nan nan nan 42 39 39 36 35 36 35 32 nan nan nan nan nan nan nan nan nan nan nan nan nan nan
52 nan nan nan 26 28 nan nan nan 30 29 34 34 33 33 nan nan nan nan nan nan nan nan 37 36 36 36 nan nan nan nan nan nan nan nan nan nan nan nan nan nan nan nan
56 nan nan 30 32 38 nan nan nan 23 29 33 30 27 33 31 36 nan nan nan nan nan nan nan nan nan nan nan nan nan nan nan nan nan 38 nan nan nan nan nan nan nan nan
40 44 40 35 39 43 nan nan nan 24 21 32 27 29 nan nan nan nan nan nan nan nan nan nan nan nan nan nan nan nan nan nan nan nan nan nan nan nan nan nan nan nan nan
nan 59 51 37 36 37 nan 35 37 27 37 32 35 nan nan nan nan nan nan nan nan nan nan nan nan nan nan nan nan nan nan nan nan nan nan nan nan nan nan nan nan nan nan
Wind_Direction
65 58 60 54 53 46 47 48 49 50 54 54 47 48 42 23 17 357 334 268 263 264 300 290 289 308 273 282 308 353 8 15 21 32 51 47 54 88 99 88 91 93 95
61 52 48 47 44 45 47 43 43 43 41 41 38 37 47 42 23 9 346 327 275 254 274 308 298 302 318 235 286 302 3 37 349 8 11 49 29 32 83 96 91 90 94
52 41 39 31 24 21 26 28 24 16 23 21 20 17 25 27 24 27 6 353 319 310 277 262 294 303 305 323 231 274 300 345 334 341 324 327 32 23 45 87 89 90 77
39 27 27 17 10 359 2 10 6 4 354 355 359 2 2 10 13 22 16 14 12 3 315 300 264 282 307 305 315 200 239 287 304 327 351 335 331 38 48 102 99 88 86
12 5 8 0 356 353 347 348 346 353 341 339 352 353 344 345 349 349 347 341 339 7 9 322 302 276 278 301 301 282 205 216 254 278 322 331 336 353 4 20 61 80 78
5 3 353 338 333 326 319 322 332 338 334 331 344 344 336 324 310 319 318 319 312 307 323 344 328 305 277 262 279 287 283 218 220 245 263 230 287 320 324 323 344 31 83
343 344 332 327 324 322 314 319 324 327 324 318 327 324 328 328 303 308 315 312 nan nan 300 293 297 300 301 277 265 257 274 281 225 228 240 259 248 277 286 299 317 331 346
333 324 321 322 321 318 322 320 321 319 319 313 316 327 nan 321 320 307 307 nan nan nan nan 284 276 276 283 285 270 263 258 254 249 226 216 234 254 263 270 277 284 299 307
316 318 316 316 317 318 314 312 312 320 316 316 317 321 nan nan 313 316 311 nan nan nan nan nan nan 273 nan nan nan 270 254 251 248 244 228 219 221 240 247 256 275 287 297
312 315 313 311 314 307 302 300 307 312 320 318 320 322 322 319 nan nan nan nan nan nan nan nan nan nan nan nan nan nan nan nan nan nan 239 224 221 218 225 241 244 260 279
315 317 318 316 313 315 314 311 307 312 315 315 320 323 324 323 324 nan nan nan nan nan nan nan nan nan nan nan nan nan nan nan nan nan nan nan nan 220 221 218 226 235 237
318 323 325 323 320 319 323 321 315 316 315 319 321 324 nan nan nan nan nan nan nan nan nan nan nan nan nan nan nan nan nan nan nan nan nan nan nan nan 223 221 217 217 229
322 324 325 322 318 315 314 314 318 316 316 317 320 322 nan nan nan nan nan nan nan nan nan nan nan nan nan nan nan nan nan nan nan nan nan nan nan nan nan nan 221 217 213
317 317 320 319 316 314 nan 318 319 316 313 313 321 324 325 325 324 323 320 nan nan nan nan nan nan nan nan nan nan nan nan nan nan nan nan nan nan nan nan nan nan 221 218
309 313 319 317 316 nan nan 321 nan 316 313 314 313 319 323 324 324 330 331 325 nan nan nan nan nan nan nan nan nan nan nan nan nan nan nan nan nan nan nan nan nan nan nan
315 312 310 311 nan nan nan 318 nan nan 315 313 314 321 323 319 317 322 325 323 nan nan nan nan nan nan nan nan nan nan nan nan nan nan nan nan nan nan nan nan nan nan nan
317 316 314 316 nan nan nan 318 318 nan 317 318 320 320 322 321 309 314 319 318 320 317 318 nan nan nan nan nan nan nan nan nan nan nan nan nan nan nan nan nan nan nan nan
308 316 317 316 318 321 319 322 321 nan 316 317 313 313 339 315 324 326 328 329 324 322 317 314 306 nan 305 301 294 283 nan nan nan nan nan nan nan nan nan nan nan nan nan
301 nan 308 311 316 322 319 325 320 319 317 307 307 290 306 318 316 321 322 320 322 315 313 308 nan nan nan 295 288 285 281 nan nan nan nan nan nan nan nan nan nan nan nan
300 301 308 311 311 324 308 318 nan 321 320 305 304 309 316 321 320 321 322 324 320 317 312 310 nan nan nan 294 290 285 nan nan nan nan nan nan nan nan nan nan nan nan nan
nan nan 293 287 304 312 nan nan 316 324 321 309 308 311 309 312 nan nan nan nan 317 315 309 nan nan nan nan nan 284 nan nan nan nan nan nan nan nan nan nan nan nan nan nan
nan nan nan nan 280 nan nan nan nan 315 310 308 288 294 305 nan nan nan nan nan nan 310 311 307 305 302 297 294 291 nan nan nan nan nan nan nan nan nan nan nan nan nan nan
305 nan nan nan 314 309 nan nan nan 314 301 301 302 298 302 nan nan nan nan nan nan nan nan 309 305 303 298 nan nan nan nan nan nan nan nan nan nan nan nan nan nan nan nan
323 nan nan 322 313 311 nan nan nan 313 303 294 308 309 305 317 314 nan nan nan nan nan nan nan nan nan nan nan nan nan nan nan nan nan 300 nan nan nan nan nan nan nan nan
316 315 305 303 314 312 nan nan nan 310 316 307 300 311 nan nan nan nan nan nan nan nan nan nan nan nan nan nan nan nan nan nan nan nan nan nan nan nan nan nan nan nan nan
nan 309 297 313 314 304 nan 333 321 290 310 304 290 nan nan nan nan nan nan nan nan nan nan nan nan nan nan nan nan nan nan nan nan nan nan nan nan nan nan nan nan nan nan